Location: Kruen
(47.5000°N, 11.5000°E)
Time: 09:43:37
(UTC+02:00)

ISS - Visible Passes

Search period start: 21 September 2020 00:00
Search period end: 01 October 2020 00:00
Orbit: 419 x 420 km, 51.6° (Epoch: 21 September)

Date Brightness Start Highest point End Pass type
(mag) Time Alt. Az. Time Alt. Az. Time Alt. Az.
21 Sep -3.4 20:54:04 10° WSW 20:57:25 63° NNW 20:58:28 38° NE visible
21 Sep -0.2 22:31:23 10° WNW 22:31:26 10° WNW 22:31:26 10° WNW visible
22 Sep -3.7 20:06:36 10° WSW 20:09:58 85° NNW 20:12:59 13° ENE visible
22 Sep -1.8 21:43:51 10° WNW 21:45:58 29° NW 21:45:58 29° NW visible
23 Sep -2.8 20:56:18 10° W 20:59:32 43° N 21:00:24 35° NNE visible
24 Sep -3.0 20:08:44 10° W 20:12:02 50° NNW 20:14:47 14° ENE visible
24 Sep -1.5 21:46:01 10° WNW 21:47:44 25° NW 21:47:44 25° NW visible
25 Sep -2.8 20:58:30 10° WNW 21:01:42 39° N 21:02:05 37° NNE visible
26 Sep -2.7 20:10:55 10° WNW 20:14:08 39° N 20:16:24 17° ENE visible
26 Sep -1.2 21:48:00 10° WNW 21:49:21 22° NW 21:49:21 22° NW visible
27 Sep -3.0 21:00:31 10° WNW 21:03:39 45° N 21:03:39 45° N visible
28 Sep -2.9 20:13:00 10° WNW 20:16:14 40° N 20:17:57 22° ENE visible
28 Sep -0.9 21:49:52 10° WNW 21:50:54 18° WNW 21:50:54 18° WNW visible
29 Sep -2.8 19:25:26 10° WNW 19:28:39 39° N 19:31:51 10° ENE visible
29 Sep -3.2 21:02:23 10° WNW 21:05:12 56° NW 21:05:12 56° NW visible
30 Sep -3.4 20:14:54 10° WNW 20:18:14 55° NNE 20:19:31 32° E visible
30 Sep -0.6 21:51:50 10° WNW 21:52:29 14° W 21:52:29 14° W visible
